SCP
-0 -0 0 0 -0 0 -0 -0 0 -0 -0 0 0 0 -0 -0 -0 -0 0 0 0 0 0 0 0 0 0 0 0 0 0 0
0 0 -0 -0 -0 -0 -0 0 0 -0 0 0 -0 -0 -0 -0 0 0 0 0 0 0 0 0 0 0 0 0 0 0 0 0
-0 0 0 0 -0 -0 -0 0 0 -0 0 0 -0 -0 -0 -0 -0 0 0 0 0 0 0 0 0 0 0 0 0 0 0 0
0 0 0 0 0 -0 -0 -0 0 0 0 -0 -0 -0 0 -0 -0 0 0 0 0 0 0 0 0 0 0 0 0 0 0 0
-0 0 0 0 0 0 0 0 -0 0 0 0 0 0 0 0 0 0 0 0 0 0 0 0 0 0 0 0 0 1 0 0
0 0 0 0 0 0 0 0 0 0 0 -0 -0 0 0 0 0 0 0 0 0 -0 0 0 0 0 0 0 0 0 0 0
0 0 0 0 0 0 0 0 0 0 0 -0 -0 0 0 0 0 0 0 0 0 0 0 0 0 0 0 0 0 0 0 0
0 0 0 0 -0 0 0 0 0 0 0 0 0 0 0 0 0 0 0 0 0 0 0 0 0 0 0 0 0 0 0 0
0 0 0 -0 0 0 -0 0 0 0 0 0 0 0 0 0 0 0 0 0 0 0 -0 0 0 0 0 0 0 0 0 0
0 0 0 0 0 0 0 0 0 0 0 0 0 0 0 0 0 0 0 0 0 0 0 0 0 0 0 0 0 0 0 0
0 -0 0 0 0 0 0 0 0 0 0 0 0 0 0 0 0 0 -0 -0 0 0 0 0 0 0 0 0 0 -0 0 0
0 -0 0 0 0 0 0 0 0 0 0 0 0 0 0 -0 -0 -0 -0 0 0 0 0 0 0 0 0 0 0 0 0 0
0 0 0 -0 0 0 0 0 0 0 0 0 0 0 0 -0 0 0 0 0 0 0 0 0 0 0 0 0 0 0 0 0
0 0 0 -0 0 0 0 0 0 0 0 0 0 -0 0 0 0 0 0 0 0 0 0 0 0 0 0 0 0 0 0 0
-0 -0 0 0 0 0 0 0 0 0 0 0 0 0 0 0 0 0 0 0 0 0 0 0 0 0 0 0 0 0 0 0
0 0 -0 0 0 0 0 0 0 0 0 0 0 0 0 0 0 0 0 0 0 0 0 0 0 0 0 0 0 0 0 0
0 0 0 0 0 -0 0 0 0 0 0 0 0 0 0 0 0 0 0 0 0 0 0 1 0 0 0 0 0 0 0 0
0 0 0 0 0 0 0 0 0 0 0 0 0 0 0 0 0 0 0 0 0 0 1 1 1 1 1 1 0 0 0 1
0 0 0 -0 -0 0 0 0 0 0 0 0 0 0 0 0 0 0 0 0 0 2 1 1 1 0 0 0 1 0 0 0
0 0 0 0 0 0 0 0 0 0 0 0 0 0 0 0 0 0 0 1 1 1 1 0 0 0 0 0 0 0 0 0
Wind_Speed_500mb
16 31 1 17 19 29 30 18 16 21 31 18 24 19 20 19 18 16 16 12 11 10 9 9 9 9 10 9 9 10 10 10
22 34 22 23 33 33 24 21 23 29 26 23 13 13 16 18 17 18 18 12 10 9 9 8 7 6 5 6 7 7 7 8
26 15 11 18 31 25 23 20 23 34 33 29 18 22 17 22 19 22 19 12 11 7 5 5 6 7 8 8 9 10 10 11
26 13 16 4 23 16 23 26 21 34 30 21 18 19 17 16 19 19 17 12 11 9 7 5 4 6 9 11 12 13 14 15
32 24 19 15 16 12 22 26 28 26 25 22 22 22 21 20 21 19 17 15 13 12 10 8 6 3 3 6 10 14 17 20
17 24 22 23 15 11 4 38 16 8 15 27 26 25 24 23 24 22 19 16 15 14 9 12 8 6 4 5 8 13 16 20
21 16 31 29 20 2 16 26 14 8 25 35 32 26 24 23 20 20 19 19 18 15 14 13 8 13 13 12 15 16 18 22
14 10 33 35 30 24 19 24 22 28 33 33 30 24 20 19 19 20 21 21 19 16 14 11 9 13 12 12 10 17 17 22
6 9 24 35 18 26 30 24 36 27 31 31 26 21 16 16 17 18 17 18 17 21 19 14 14 13 12 12 11 13 23 33
17 13 23 21 15 16 25 22 24 30 32 31 26 22 17 14 15 19 20 22 20 20 24 21 17 17 17 16 17 17 20 30
18 26 20 24 15 22 8 8 23 33 33 29 26 21 16 14 21 20 20 20 17 16 14 19 16 13 14 14 16 16 17 25
24 24 22 19 23 10 21 16 27 33 32 30 28 23 21 24 21 20 20 18 14 10 12 4 8 11 11 13 15 16 17 19
24 29 18 29 20 23 26 26 32 34 31 28 28 27 25 23 21 20 17 15 10 6 2 1 5 8 11 13 17 20 22 24
28 27 23 27 30 30 29 35 37 37 35 32 31 30 26 23 20 18 14 12 8 6 7 12 12 12 16 17 19 24 26 29
37 36 22 28 34 42 39 40 38 38 39 38 35 34 31 27 24 20 18 15 12 12 11 15 18 21 22 25 28 31 33 35
29 32 34 30 37 31 41 42 40 38 40 43 43 43 38 32 28 24 21 19 17 16 18 20 25 24 27 31 36 38 42 44
23 27 32 37 34 37 40 42 44 41 41 44 47 43 40 36 32 28 25 23 21 20 22 23 26 30 35 37 42 46 48 52
18 11 19 31 37 36 35 41 49 45 44 43 43 40 41 38 35 32 28 23 21 22 24 25 27 30 39 44 43 45 47 48
22 25 25 31 36 32 38 39 49 51 48 44 43 43 42 39 37 30 28 23 23 25 26 30 42 28 25 33 37 44 49 52
16 18 25 45 28 36 40 34 36 51 49 47 42 40 37 38 39 31 28 21 16 21 22 19 33 23 35 39 39 47 60 58
Wind_Direction_500mb
231 239 67 272 130 87 98 112 90 86 73 66 99 69 101 127 129 119 123 135 120 124 139 132 130 130 132 141 151 158 167 174
256 257 48 100 101 107 129 86 74 112 87 94 87 125 95 114 141 121 117 126 120 129 142 157 156 150 146 164 177 186 192 197
233 253 83 110 105 142 134 95 104 103 94 97 96 108 105 118 127 127 124 106 124 115 129 154 179 195 200 205 214 221 228 234
233 133 149 167 146 160 122 110 95 100 105 88 112 129 128 125 128 122 135 117 113 107 98 117 168 211 227 235 241 243 248 251
240 145 166 166 161 157 119 146 65 137 99 118 123 123 130 135 131 124 121 123 106 93 75 66 78 51 315 285 279 278 281 281
276 140 177 159 183 38 77 75 102 82 150 143 138 129 126 125 118 119 112 106 106 98 70 61 57 50 12 331 312 305 298 294
228 184 140 152 159 56 82 120 98 59 76 134 140 133 128 128 126 118 113 111 113 110 108 105 75 33 25 7 351 348 328 314
164 238 135 160 185 151 170 140 128 106 117 134 143 148 150 150 134 123 116 110 105 98 85 71 48 55 34 17 354 339 325 323
69 341 141 173 174 159 195 191 154 152 146 147 153 163 168 146 131 126 122 109 103 96 101 83 71 55 38 26 29 3 352 354
184 193 163 163 150 193 230 55 126 142 156 154 163 168 152 145 149 136 128 117 109 92 85 98 73 58 44 39 30 13 5 7
159 199 190 157 170 201 184 112 134 147 156 161 162 151 142 151 139 137 128 125 119 111 88 74 77 57 55 44 23 28 6 351
183 193 185 166 202 166 148 169 152 163 165 169 162 158 148 148 149 148 144 140 144 127 78 63 36 34 46 353 5 346 344 329
197 192 169 225 185 211 168 184 171 180 181 175 177 173 170 169 165 164 159 163 148 162 137 121 340 354 329 339 322 323 318 318
191 187 212 219 223 190 163 185 186 192 189 190 192 191 186 182 180 181 183 199 200 208 274 296 291 304 307 310 309 310 311 309
178 195 209 214 252 168 170 192 198 199 199 202 204 206 203 202 200 203 208 218 239 264 282 278 288 297 301 306 314 311 311 310
198 186 227 211 243 164 176 199 211 204 210 208 215 215 212 214 214 217 223 236 246 256 266 282 299 301 310 309 310 309 307 304
200 193 198 229 219 255 179 206 211 213 211 215 215 221 219 223 225 226 232 241 253 266 279 289 293 294 301 301 300 301 300 297
217 163 247 233 240 232 211 203 223 219 218 219 224 220 225 224 225 230 236 245 258 273 280 284 290 285 289 297 299 300 303 304
231 199 231 259 257 230 236 201 222 230 231 231 229 229 228 231 225 237 241 253 266 259 268 279 284 307 296 296 305 302 299 297
292 231 242 214 253 232 222 210 220 231 232 234 237 237 240 230 227 234 245 240 249 259 264 287 292 299 298 316 309 299 304 301
Wind_Speed_850mb
16 31 1 17 19 29 30 18 16 21 31 18 24 19 20 19 18 16 16 12 11 10 9 9 9 9 10 9 9 10 10 10
22 34 22 23 33 33 24 21 23 29 26 23 13 13 16 18 17 18 18 12 10 9 9 8 7 6 5 6 7 7 7 8
26 15 11 18 31 25 23 20 23 34 33 29 18 22 17 22 19 22 19 12 11 7 5 5 6 7 8 8 9 10 10 11
26 13 16 4 23 16 23 26 21 34 30 21 18 19 17 16 19 19 17 12 11 9 7 5 4 6 9 11 12 13 14 15
32 24 19 15 16 12 22 26 28 26 25 22 22 22 21 20 21 19 17 15 13 12 10 8 6 3 3 6 10 14 17 20
17 24 22 23 15 11 4 38 16 8 15 27 26 25 24 23 24 22 19 16 15 14 9 12 8 6 4 5 8 13 16 20
21 16 31 29 20 2 16 26 14 8 25 35 32 26 24 23 20 20 19 19 18 15 14 13 8 13 13 12 15 16 18 22
14 10 33 35 30 24 19 24 22 28 33 33 30 24 20 19 19 20 21 21 19 16 14 11 9 13 12 12 10 17 17 22
6 9 24 35 18 26 30 24 36 27 31 31 26 21 16 16 17 18 17 18 17 21 19 14 14 13 12 12 11 13 23 33
17 13 23 21 15 16 25 22 24 30 32 31 26 22 17 14 15 19 20 22 20 20 24 21 17 17 17 16 17 17 20 30
18 26 20 24 15 22 8 8 23 33 33 29 26 21 16 14 21 20 20 20 17 16 14 19 16 13 14 14 16 16 17 25
24 24 22 19 23 10 21 16 27 33 32 30 28 23 21 24 21 20 20 18 14 10 12 4 8 11 11 13 15 16 17 19
24 29 18 29 20 23 26 26 32 34 31 28 28 27 25 23 21 20 17 15 10 6 2 1 5 8 11 13 17 20 22 24
28 27 23 27 30 30 29 35 37 37 35 32 31 30 26 23 20 18 14 12 8 6 7 12 12 12 16 17 19 24 26 29
37 36 22 28 34 42 39 40 38 38 39 38 35 34 31 27 24 20 18 15 12 12 11 15 18 21 22 25 28 31 33 35
29 32 34 30 37 31 41 42 40 38 40 43 43 43 38 32 28 24 21 19 17 16 18 20 25 24 27 31 36 38 42 44
23 27 32 37 34 37 40 42 44 41 41 44 47 43 40 36 32 28 25 23 21 20 22 23 26 30 35 37 42 46 48 52
18 11 19 31 37 36 35 41 49 45 44 43 43 40 41 38 35 32 28 23 21 22 24 25 27 30 39 44 43 45 47 48
22 25 25 31 36 32 38 39 49 51 48 44 43 43 42 39 37 30 28 23 23 25 26 30 42 28 25 33 37 44 49 52
16 18 25 45 28 36 40 34 36 51 49 47 42 40 37 38 39 31 28 21 16 21 22 19 33 23 35 39 39 47 60 58
Wind_Direction_850mb
231 239 67 272 130 87 98 112 90 86 73 66 99 69 101 127 129 119 123 135 120 124 139 132 130 130 132 141 151 158 167 174
256 257 48 100 101 107 129 86 74 112 87 94 87 125 95 114 141 121 117 126 120 129 142 157 156 150 146 164 177 186 192 197
233 253 83 110 105 142 134 95 104 103 94 97 96 108 105 118 127 127 124 106 124 115 129 154 179 195 200 205 214 221 228 234
233 133 149 167 146 160 122 110 95 100 105 88 112 129 128 125 128 122 135 117 113 107 98 117 168 211 227 235 241 243 248 251
240 145 166 166 161 157 119 146 65 137 99 118 123 123 130 135 131 124 121 123 106 93 75 66 78 51 315 285 279 278 281 281
276 140 177 159 183 38 77 75 102 82 150 143 138 129 126 125 118 119 112 106 106 98 70 61 57 50 12 331 312 305 298 294
228 184 140 152 159 56 82 120 98 59 76 134 140 133 128 128 126 118 113 111 113 110 108 105 75 33 25 7 351 348 328 314
164 238 135 160 185 151 170 140 128 106 117 134 143 148 150 150 134 123 116 110 105 98 85 71 48 55 34 17 354 339 325 323
69 341 141 173 174 159 195 191 154 152 146 147 153 163 168 146 131 126 122 109 103 96 101 83 71 55 38 26 29 3 352 354
184 193 163 163 150 193 230 55 126 142 156 154 163 168 152 145 149 136 128 117 109 92 85 98 73 58 44 39 30 13 5 7
159 199 190 157 170 201 184 112 134 147 156 161 162 151 142 151 139 137 128 125 119 111 88 74 77 57 55 44 23 28 6 351
183 193 185 166 202 166 148 169 152 163 165 169 162 158 148 148 149 148 144 140 144 127 78 63 36 34 46 353 5 346 344 329
197 192 169 225 185 211 168 184 171 180 181 175 177 173 170 169 165 164 159 163 148 162 137 121 340 354 329 339 322 323 318 318
191 187 212 219 223 190 163 185 186 192 189 190 192 191 186 182 180 181 183 199 200 208 274 296 291 304 307 310 309 310 311 309
178 195 209 214 252 168 170 192 198 199 199 202 204 206 203 202 200 203 208 218 239 264 282 278 288 297 301 306 314 311 311 310
198 186 227 211 243 164 176 199 211 204 210 208 215 215 212 214 214 217 223 236 246 256 266 282 299 301 310 309 310 309 307 304
200 193 198 229 219 255 179 206 211 213 211 215 215 221 219 223 225 226 232 241 253 266 279 289 293 294 301 301 300 301 300 297
217 163 247 233 240 232 211 203 223 219 218 219 224 220 225 224 225 230 236 245 258 273 280 284 290 285 289 297 299 300 303 304
231 199 231 259 257 230 236 201 222 230 231 231 229 229 228 231 225 237 241 253 266 259 268 279 284 307 296 296 305 302 299 297
292 231 242 214 253 232 222 210 220 231 232 234 237 237 240 230 227 234 245 240 249 259 264 287 292 299 298 316 309 299 304 301